, SD

(GMT )
Rapid City

Weather History for KRAP - June, 2013

Change the Weather History Date:

Tuesday, June 18, 2013

  Actual Average Record
Temperature  
Mean Temperature 67 °F 65 °F  
Max Temperature 84 °F 79 °F 102 °F (1988)
Min Temperature 49 °F 52 °F 38 °F (1945)
Degree Days  
Heating Degree Days 0 3  
Month to date heating degree days 79 78  
Since 1 June heating degree days 79 78  
Since 1 July heating degree days 7183 7132  
Cooling Degree Days 2 3  
Month to date cooling degree days 9 31  
Year to date cooling degree days 17 46  
Since 1 June cooling degree days 9 31  
Growing Degree Days 18 (Base 50)    
Moisture  
Dew Point 54 °F    
Average Humidity 64    
Maximum Humidity 93    
Minimum Humidity 34    
Precipitation  
Precipitation 0.00 in 0.08 in 1.69 in (1975)
Month to date precipitation 0.63 1.74  
Year to date precipitation 8.25 8.43  
Snow  
Snow 0.00 in 0.00 in 0.00 in ()
Month to date snowfall 0.0 0.0  
Since 1 June snowfall 0.0 0.0  
Since 1 July snowfall 76.7 41.1  
Snow Depth 0.00 in    
Sea Level Pressure  
Sea Level Pressure 29.96 in    
Wind  
Wind Speed 7 mph (SE)    
Max Wind Speed 21 mph    
Max Gust Speed 25 mph    
Visibility 10 miles    
Events      
T = Trace of Precipitation, MM = Missing Value Source: NWS Daily Summary

Daily Weather History Graph

Daily Weather History Graph

Search for Another Location

Airport or City:

Trip Planner

Search our weather history database for the weather conditions in past years. The results will help you decide how hot, cold, wet, or windy it might be!

Date:

Astronomy

Jun. 18, 2013 Rise Set
Actual Time 5:08 AM MDT 8:38 PM MDT
Civil Twilight 4:32 AM MDT 9:14 PM MDT
Nautical Twilight 3:44 AM MDT 10:02 PM MDT
Astronomical Twilight 2:43 AM MDT 11:03 PM MDT
Moon 3:17 PM MDT (6/18) 1:27 AM MDT (6/18)
Length of Visible Light 16h 42m
Length of Day
15h 29m
Waxing Gibbous, 71% of the Moon is Illuminated
Jun 18
Waxing Gibbous
Jun 23
Full
Jun 29
Last Quarter
Jul 8
New
Jul 15
First Quarter

Hourly Weather History & Observations

Time (MDT) Temp. Heat Index Dew Point Humidity Pressure Visibility Wind Dir Wind Speed Gust Speed Precip Events Conditions
12:52 AM 50.0 °F - 48.9 °F 96% 30.06 in 10.0 mi WNW 3.5 mph - N/A   Clear
1:52 AM 50.0 °F - 48.0 °F 93% 30.06 in 10.0 mi Calm Calm - N/A   Clear
2:52 AM 51.1 °F - 48.0 °F 89% 30.06 in 10.0 mi Calm Calm - N/A   Clear
3:52 AM 53.1 °F - 48.0 °F 83% 30.06 in 10.0 mi Calm Calm - N/A   Clear
4:52 AM 51.1 °F - 48.9 °F 92% 30.06 in 10.0 mi East 3.5 mph - N/A   Clear
5:52 AM 53.1 °F - 51.1 °F 93% 30.05 in 10.0 mi Calm Calm - N/A   Clear
6:52 AM 57.9 °F - 53.1 °F 84% 30.05 in 10.0 mi Calm Calm - N/A   Clear
7:52 AM 62.1 °F - 55.9 °F 80% 30.04 in 10.0 mi SE 3.5 mph - N/A   Clear
8:52 AM 64.9 °F - 55.9 °F 73% 30.03 in 10.0 mi South 3.5 mph - N/A   Clear
9:52 AM 69.1 °F - 57.9 °F 68% 30.02 in 10.0 mi SE 5.8 mph - N/A   Clear
10:52 AM 73.0 °F - 57.0 °F 57% 30.01 in 10.0 mi SE 9.2 mph - N/A   Clear
11:52 AM 75.9 °F - 55.9 °F 50% 29.99 in 10.0 mi SE 10.4 mph 17.3 mph N/A   Clear
12:52 PM 79.0 °F - 57.0 °F 47% 29.97 in 10.0 mi SE 12.7 mph 18.4 mph N/A   Clear
1:52 PM 82.0 °F 81.4 °F 55.0 °F 39% 29.95 in 10.0 mi South 12.7 mph - N/A   Clear
2:52 PM 84.0 °F 82.6 °F 54.0 °F 35% 29.91 in 10.0 mi SSE 15.0 mph 23.0 mph N/A   Clear
3:52 PM 82.9 °F 81.9 °F 54.0 °F 37% 29.88 in 10.0 mi SSE 17.3 mph 25.3 mph N/A   Clear
4:52 PM 80.1 °F 80.1 °F 55.0 °F 42% 29.91 in 10.0 mi SSE 15.0 mph - N/A   Partly Cloudy
5:52 PM 79.0 °F - 55.0 °F 44% 29.90 in 10.0 mi SSE 8.1 mph - N/A   Clear
6:52 PM 75.9 °F - 57.0 °F 52% 29.86 in 10.0 mi SE 8.1 mph - N/A   Clear
7:52 PM 72.0 °F - 59.0 °F 64% 29.87 in 10.0 mi SE 8.1 mph - N/A   Clear
8:52 PM 68.0 °F - 57.9 °F 70% 29.89 in 10.0 mi SE 9.2 mph - N/A   Clear
9:52 PM 66.9 °F - 57.0 °F 70% 29.88 in 10.0 mi ESE 9.2 mph - N/A   Clear
10:52 PM 64.0 °F - 57.0 °F 78% 29.86 in 10.0 mi SSE 6.9 mph - N/A   Clear
11:52 PM 62.1 °F - 57.0 °F 84% 29.83 in 10.0 mi SE 6.9 mph - N/A   Clear